This is the latest recevied weather packets stored in our database for station/object W1REE. If no packets are shown the sender has not sent any weather packets the latest 10 day(s).
| Time | Temp. | Humidity | Pressure | Rain* | Wind** | Luminosity | Snow |
|---|---|---|---|---|---|---|---|
| 1777336188 | 7.22° C | 86% | 1014.7 hPa | 0 mm | - | 6 W/m² | - |
| 1777335885 | 7.22° C | 83% | 1015.3 hPa | 0 mm | - | 3 W/m² | - |
| 1777335581 | 7.22° C | 84% | 1015 hPa | 0 mm | - | 1 W/m² | - |
| 1777335279 | 7.22° C | 85% | 1014.6 hPa | 0 mm | - | 5 W/m² | - |
| 1777334976 | 7.78° C | 84% | 1014.5 hPa | 0 mm | - | 12 W/m² | - |
| 1777334673 | 7.78° C | 82% | 1015 hPa | 0 mm | - | 20 W/m² | - |
| 1777334371 | 7.78° C | 80% | 1014.6 hPa | 0 mm | - | 27 W/m² | - |
| 1777334067 | 7.78° C | 80% | 1014.5 hPa | 0 mm | - | 17 W/m² | - |
| 1777333762 | 7.78° C | 81% | 1014.7 hPa | 0 mm | - | 33 W/m² | - |
| 1777333459 | 7.78° C | 84% | 1014.7 hPa | 0 mm | - | 51 W/m² | - |
| 1777333156 | 7.78° C | 86% | 1015 hPa | 0 mm | - | 116 W/m² | - |
| 1777332854 | 7.78° C | 86% | 1014.7 hPa | 1.78 mm | - | 132 W/m² | - |
| 1777332551 | 7.78° C | 84% | 1014.7 hPa | 4.83 mm | - | 178 W/m² | - |
| 1777332249 | 8.33° C | 81% | 1015 hPa | 6.1 mm | - | 41 W/m² | - |
| 1777331944 | 8.89° C | 77% | 1014.7 hPa | 3.05 mm | - | 10 W/m² | - |
| 1777331642 | 9.44° C | 72% | 1014.4 hPa | 3.56 mm | - | 17 W/m² | - |
| 1777331339 | 10° C | 70% | 1014.4 hPa | 1.78 mm | - | 26 W/m² | - |
| 1777331036 | 10.56° C | 65% | 1014.2 hPa | 1.78 mm | - | 25 W/m² | - |
| 1777330733 | 10.56° C | 59% | 1014.1 hPa | 0 mm | - | 10 W/m² | - |
| 1777330431 | 10.56° C | 56% | 1013.9 hPa | 0 mm | - | 18 W/m² | - |
| 1777330128 | 10.56° C | 58% | 1014 hPa | 0 mm | - | 31 W/m² | - |
| 1777329827 | 11.11° C | 57% | 1013.9 hPa | 0 mm | - | 76 W/m² | - |
| 1777329525 | 11.11° C | 57% | 1013.9 hPa | 0 mm | - | 64 W/m² | - |
| 1777329222 | 11.11° C | 58% | 1014.2 hPa | 0 mm | - | 81 W/m² | - |
| 1777328919 | 11.11° C | 56% | 1013.7 hPa | 0 mm | - | 147 W/m² | - |
* Rain latest hour (hover to see other rain measurements)
** Current wind speed in m/s (hover to see current wind gust speed)